FW9648 Weather Reports


time (UTC)temp
C
wind
direction
speed
KPH
gust
KPH
rain 1hr
cm
rain 24hr
cm
rain mn
cm
humidity
%
barometer
mb
20260510081623 10 114 0.0 3.2 0.00 0.00 0.00 96 1011.1
20260510081120 10 188 0.0 0.0 0.00 0.00 0.00 96 1010.8
20260510080619 10 210 3.2 3.2 0.00 0.00 0.00 96 1010.9
20260510080116 10 254 0.0 1.6 0.00 0.00 0.00 96 1010.9
20260510075614 10 234 4.8 4.8 0.00 0.00 0.00 96 1010.7
20260510075111 10 126 1.6 3.2 0.00 0.00 0.00 96 1010.8
20260510074608 10 261 0.0 0.0 0.00 0.00 0.00 95 1010.8
20260510074103 10 188 0.0 3.2 0.00 0.00 0.00 95 1010.7
20260510073559 10 262 0.0 1.6 0.00 0.00 0.00 95 1010.7
20260510073057 10 261 0.0 1.6 0.00 0.00 0.00 95 1010.9
20260510072553 10 229 0.0 3.2 0.00 0.00 0.00 95 1010.7
20260510072049 10 261 0.0 0.0 0.00 0.00 0.00 95 1010.6
20260510071545 10 286 0.0 3.2 0.00 0.00 0.00 95 1010.7
20260510071043 10 279 0.0 3.2 0.00 0.00 0.00 95 1010.5
20260510070540 10 261 0.0 3.2 0.00 0.00 0.00 95 1010.6
20260510070037 10 157 0.0 1.6 0.00 0.00 0.00 95 1010.3
20260510065533 10 240 0.0 1.6 0.00 0.00 0.00 94 1010.6
20260510065029 10 103 0.0 3.2 0.00 0.00 0.00 94 1010.5
20260510064526 10 147 0.0 3.2 0.00 0.00 0.00 94 1010.6
20260510064022 10 306 0.0 3.2 0.00 0.00 0.00 94 1010.5
20260510063519 10 279 0.0 3.2 0.00 0.00 0.00 94 1010.2
20260510063017 10 233 0.0 3.2 0.00 0.00 0.00 94 1010.3
20260510062512 10 188 0.0 3.2 0.00 0.00 0.00 93 1010.5
20260510062008 10 228 3.2 4.8 0.00 0.00 0.00 93 1010.5
20260510061505 10 139 3.2 3.2 0.00 0.00 0.00 93 1010.5
20260510061001 10 286 0.0 1.6 0.00 0.00 0.00 93 1010.3
20260510060458 11 289 1.6 3.2 0.00 0.00 0.00 93 1010.3
20260510055954 11 195 1.6 4.8 0.00 0.00 0.00 93 1010.6
20260510055450 11 131 3.2 3.2 0.00 0.00 0.00 92 1010.3
20260510054948 11 172 0.0 3.2 0.00 0.00 0.00 92 1010.2
20260510054443 11 270 0.0 3.2 0.00 0.00 0.00 92 1010.2
20260510053938 11 90 0.0 3.2 0.00 0.00 0.00 92 1010.3
20260510053434 11 0 0.0 3.2 0.00 0.00 0.00 91 1010.2
20260510052930 11 106 0.0 3.2 0.00 0.00 0.00 91 1010.1
20260510052426 11 7 0.0 4.8 0.00 0.00 0.00 91 1010.0
20260510051923 11 121 3.2 3.2 0.00 0.00 0.00 91 1010.2
20260510051419 12 337 0.0 0.0 0.00 0.00 0.00 90 1010.1
20260510050916 12 144 3.2 3.2 0.00 0.00 0.00 90 1010.0
20260510050413 12 140 0.0 3.2 0.00 0.00 0.00 90 1010.2
20260510045910 12 130 3.2 3.2 0.00 0.00 0.00 90 1010.1
20260510045407 12 99 0.0 3.2 0.00 0.00 0.00 90 1010.0
20260510044903 12 135 3.2 4.8 0.00 0.00 0.00 90 1010.0
20260510044400 13 225 0.0 6.4 0.00 0.00 0.00 90 1010.3
20260510043857 13 263 0.0 0.0 0.00 0.00 0.00 91 1010.2
20260510043353 13 166 0.0 1.6 0.00 0.00 0.00 91 1010.0
20260510042851 13 203 1.6 3.2 0.00 0.00 0.00 92 1010.0
20260510042347 12 180 1.6 4.8 0.00 0.00 0.00 93 1010.3
20260510041843 12 243 1.6 3.2 0.00 0.00 0.00 92 1010.2
20260510041340 12 254 3.2 3.2 0.00 0.00 0.00 92 1010.1
20260510040838 12 203 0.0 3.2 0.00 0.00 0.00 92 1010.2
20260510040334 12 113 3.2 3.2 0.00 0.00 0.00 91 1010.3
20260510035830 12 126 0.0 4.8 0.00 0.00 0.00 91 1010.1
20260510035326 12 165 0.0 1.6 0.00 0.00 0.00 91 1010.1
20260510034822 12 126 1.6 3.2 0.00 0.00 0.00 90 1010.1
20260510034320 12 145 0.0 0.0 0.00 0.00 0.00 90 1010.1
20260510033816 12 270 1.6 1.6 0.00 0.00 0.00 90 1010.3
20260510033313 13 354 0.0 0.0 0.00 0.00 0.00 89 1010.2
20260510032809 13 111 0.0 0.0 0.00 0.00 0.00 89 1010.2
20260510032306 13 120 0.0 3.2 0.00 0.00 0.00 89 1010.0
20260510031802 13 128 3.2 3.2 0.00 0.00 0.00 89 1009.9
20260510031257 13 120 0.0 1.6 0.00 0.00 0.00 88 1010.1
20260510030751 13 270 0.0 0.0 0.00 0.00 0.00 88 1009.8
20260510030248 13 106 0.0 0.0 0.00 0.00 0.00 88 1009.8
20260510025745 13 106 0.0 0.0 0.00 0.00 0.00 87 1010.0
20260510025243 13 209 0.0 0.0 0.00 0.00 0.00 87 1009.8
20260510024740 14 209 0.0 1.6 0.00 0.00 0.00 87 1009.6
20260510024236 14 180 0.0 4.8 0.00 0.00 0.00 87 1009.7
20260510023732 14 222 4.8 4.8 0.00 0.00 0.00 87 1009.5
20260510023224 14 218 3.2 4.8 0.00 0.00 0.00 87 1009.5
20260510022720 14 212 3.2 3.2 0.00 0.00 0.00 86 1009.6
20260510022220 15 258 3.2 3.2 0.00 0.00 0.00 85 1009.2
20260510021715 15 228 3.2 3.2 0.00 0.00 0.00 85 1009.2
20260510021213 15 237 0.0 3.2 0.00 0.00 0.00 84 1009.0
20260510020708 15 172 0.0 3.2 0.00 0.00 0.00 84 1009.2
20260510020203 15 126 0.0 4.8 0.00 0.00 0.00 84 1009.1
20260510015659 15 245 3.2 4.8 0.00 0.00 0.00 83 1009.1
20260510015156 15 239 3.2 4.8 0.00 0.00 0.00 83 1009.2
20260510014656 15 180 0.0 3.2 0.00 0.00 0.00 83 1008.9
20260510014153 15 235 3.2 4.8 0.00 0.00 0.00 82 1008.6
20260510013648 15 228 3.2 4.8 0.00 0.00 0.00 81 1008.7
20260510013144 15 247 3.2 3.2 0.00 0.00 0.00 81 1008.7
20260510012644 16 246 0.0 3.2 0.00 0.00 0.00 80 1008.6
20260510012140 16 249 0.0 3.2 0.00 0.00 0.00 79 1008.4
20260510011635 16 243 3.2 3.2 0.00 0.00 0.00 79 1008.5
20260510011131 16 240 1.6 3.2 0.00 0.00 0.00 78 1008.4
20260510010627 16 195 1.6 3.2 0.00 0.00 0.00 78 1008.3
20260510010124 16 225 4.8 4.8 0.00 0.00 0.00 78 1008.3
20260510005619 16 230 4.8 4.8 0.00 0.00 0.00 77 1008.1
20260510005117 16 236 3.2 4.8 0.00 0.00 0.00 77 1008.2
20260510004615 17 240 3.2 3.2 0.00 0.00 0.00 76 1008.2
20260510004113 17 270 0.0 3.2 0.00 0.00 0.00 75 1008.0
20260510003610 17 240 0.0 1.6 0.00 0.00 0.00 74 1007.9
20260510003106 17 243 0.0 3.2 0.00 0.00 0.00 73 1007.8
20260510002600 18 249 1.6 3.2 0.00 0.00 0.00 72 1007.8
20260510002057 18 220 0.0 3.2 0.00 0.00 0.00 72 1007.7
20260510001555 18 228 3.2 3.2 0.00 0.00 0.00 72 1007.5
20260510001054 18 245 3.2 4.8 0.00 0.00 0.00 72 1007.7
20260510000548 18 233 3.2 4.8 0.00 0.00 0.00 72 1007.5
20260510000046 18 231 3.2 4.8 0.00 0.00 0.00 71 1007.5
20260509235542 19 245 3.2 4.8 0.00 0.00 0.00 70 1007.7
20260509235038 19 232 3.2 4.8 0.00 0.00 0.00 68 1007.4
20260509234534 20 247 3.2 4.8 0.00 0.00 0.00 69 1007.3
20260509234033 20 246 3.2 3.2 0.00 0.00 0.00 68 1007.6
20260509233530 20 259 3.2 4.8 0.00 0.00 0.00 68 1007.5
20260509233027 20 248 4.8 4.8 0.00 0.00 0.00 68 1007.2
20260509232524 20 263 1.6 3.2 0.00 0.00 0.00 67 1007.3
20260509232020 21 255 4.8 4.8 0.00 0.00 0.00 65 1007.5
20260509231517 21 229 3.2 6.4 0.00 0.00 0.00 60 1007.5
20260509231015 22 213 3.2 4.8 0.00 0.00 0.00 59 1007.2
20260509230511 22 254 0.0 3.2 0.00 0.00 0.00 62 1007.4
20260509230008 22 3 0.0 4.8 0.00 0.00 0.00 58 1007.4
20260509225503 23 0 0.0 4.8 0.00 0.00 0.00 57 1007.1
20260509224959 23 274 4.8 4.8 0.00 0.00 0.00 55 1007.2
20260509224455 23 90 0.0 3.2 0.00 0.00 0.00 54 1007.4
20260509223952 23 105 0.0 8.0 0.00 0.00 0.00 54 1007.6
20260509223449 23 270 0.0 6.4 0.00 0.00 0.00 54 1007.4
20260509222946 23 106 1.6 9.7 0.00 0.00 0.00 53 1007.2
20260509222442 23 266 4.8 8.0 0.00 0.00 0.00 54 1007.2
20260509221938 23 103 1.6 11.3 0.00 0.00 0.00 52 1007.3
20260509221434 24 217 3.2 8.0 0.00 0.00 0.00 52 1007.4
20260509220930 23 246 4.8 11.3 0.00 0.00 0.00 53 1007.4
20260509220426 23 262 1.6 8.0 0.00 0.00 0.00 55 1007.5
20260509215923 25 234 0.0 3.2 0.00 0.00 0.00 51 1007.3
20260509215418 24 131 4.8 11.3 0.00 0.00 0.00 50 1007.4
20260509214916 24 87 4.8 8.0 0.00 0.00 0.00 52 1007.3
20260509214413 24 243 3.2 6.4 0.00 0.00 0.00 52 1007.2
20260509213910 24 189 3.2 6.4 0.00 0.00 0.00 53 1007.5
20260509213405 23 247 4.8 6.4 0.00 0.00 0.00 52 1007.2
20260509212903 23 337 1.6 6.4 0.00 0.00 0.00 52 1007.4
20260509212400 23 233 0.0 4.8 0.00 0.00 0.00 52 1007.2
20260509211856 23 261 0.0 4.8 0.00 0.00 0.00 52 1007.1
20260509211352 23 114 0.0 4.8 0.00 0.00 0.00 53 1007.0
20260509210849 23 162 3.2 11.3 0.00 0.00 0.00 52 1007.2
20260509210346 23 139 0.0 17.7 0.00 0.00 0.00 51 1007.1
20260509205846 24 278 0.0 8.0 0.00 0.00 0.00 50 1007.3
20260509205340 25 282 6.4 25.7 0.00 0.00 0.00 50 1007.1
20260509204838 24 242 8.0 19.3 0.00 0.00 0.00 49 1006.9
20260509204334 25 259 9.7 27.4 0.00 0.00 0.00 47 1006.9
20260509203830 25 105 4.8 19.3 0.00 0.00 0.00 48 1007.0
20260509203327 25 228 0.0 19.3 0.00 0.00 0.00 48 1006.9
20260509202823 24 159 9.7 17.7 0.00 0.00 0.00 49 1006.8
20260509202320 25 225 6.4 6.4 0.00 0.00 0.00 47 1006.9
20260509201819 25 131 14.5 16.1 0.00 0.00 0.00 47 1007.0
20260509201316 25 283 9.7 11.3 0.00 0.00 0.00 48 1006.7
20260509200813 25 127 0.0 24.1 0.00 0.00 0.00 49 1006.8
20260509200308 25 123 3.2 9.7 0.00 0.00 0.00 49 1006.8
20260509195804 25 158 6.4 9.7 0.00 0.00 0.00 50 1007.0
20260509195300 25 266 4.8 11.3 0.00 0.00 0.00 51 1007.1
20260509194759 24 160 1.6 14.5 0.00 0.00 0.00 52 1007.2
20260509194255 25 75 8.0 22.5 0.00 0.00 0.00 49 1007.2
20260509193752 25 247 4.8 11.3 0.00 0.00 0.00 49 1007.5
20260509193247 25 103 9.7 14.5 0.00 0.00 0.00 48 1007.4
20260509192743 24 228 6.4 14.5 0.00 0.00 0.00 49 1007.4
20260509192238 24 254 4.8 17.7 0.00 0.00 0.00 49 1007.3
20260509191734 25 213 8.0 11.3 0.00 0.00 0.00 47 1007.3
20260509191231 25 242 4.8 11.3 0.00 0.00 0.00 46 1007.5
20260509190727 25 117 3.2 4.8 0.00 0.00 0.00 49 1007.6
20260509190224 24 315 0.0 14.5 0.00 0.00 0.00 47 1007.9
20260509185721 24 325 4.8 11.3 0.00 0.00 0.00 50 1007.9
20260509185217 24 147 4.8 8.0 0.00 0.00 0.00 52 1007.9
20260509184715 23 258 9.7 22.5 0.00 0.00 0.00 48 1008.0
20260509184212 23 218 8.0 14.5 0.00 0.00 0.00 49 1008.0
20260509183708 23 239 6.4 17.7 0.00 0.00 0.00 49 1008.0
20260509183203 23 198 4.8 20.9 0.00 0.00 0.00 50 1008.1
20260509182659 23 123 4.8 20.9 0.00 0.00 0.00 51 1008.2
20260509182157 23 134 8.0 20.9 0.00 0.00 0.00 52 1008.4
20260509181655 23 134 8.0 14.5 0.00 0.00 0.00 53 1008.5
20260509181152 23 77 1.6 12.9 0.00 0.00 0.00 53 1008.8
20260509180649 22 232 8.0 17.7 0.00 0.00 0.00 53 1008.8
20260509180144 22 214 3.2 17.7 0.00 0.00 0.00 55 1009.0
20260509175641 22 242 11.3 16.1 0.00 0.00 0.00 55 1008.9
20260509175138 22 285 6.4 16.1 0.00 0.00 0.00 57 1008.9
20260509174633 22 176 0.0 9.7 0.00 0.00 0.00 60 1008.7
20260509174128 21 237 8.0 20.9 0.00 0.00 0.00 60 1009.1
20260509173625 22 231 9.7 25.7 0.00 0.00 0.00 59 1008.9
20260509173120 22 157 0.0 8.0 0.00 0.00 0.00 61 1009.3
20260509172618 22 245 9.7 14.5 0.00 0.00 0.00 59 1009.3
20260509172114 22 292 3.2 9.7 0.00 0.00 0.00 60 1009.2
20260509171609 21 237 4.8 20.9 0.00 0.00 0.00 60 1009.5
20260509171106 21 127 3.2 24.1 0.00 0.00 0.00 62 1009.5
20260509170602 22 191 8.0 14.5 0.00 0.00 0.00 60 1009.5
20260509170058 21 168 0.0 11.3 0.00 0.00 0.00 61 1009.5
20260509165557 21 113 12.9 20.9 0.00 0.00 0.00 61 1009.4
20260509165052 21 274 3.2 30.6 0.00 0.00 0.00 59 1009.4
20260509164549 21 286 3.2 22.5 0.00 0.00 0.00 63 1009.5
20260509164044 21 157 1.6 6.4 0.00 0.00 0.00 63 1009.6
20260509163543 20 10 4.8 8.0 0.00 0.00 0.00 63 1009.5
20260509163038 20 121 4.8 12.9 0.00 0.00 0.00 62 1009.6
20260509162535 20 260 8.0 17.7 0.00 0.00 0.00 62 1009.6
20260509162031 21 101 8.0 14.5 0.00 0.00 0.00 63 1009.7
20260509161527 20 275 3.2 17.7 0.00 0.00 0.00 61 1009.6
20260509161022 20 112 3.2 17.7 0.00 0.00 0.00 63 1009.7
20260509160518 19 213 9.7 22.5 0.00 0.00 0.00 63 1009.7
20260509160014 20 339 3.2 16.1 0.00 0.00 0.00 63 1009.9
20260509155510 20 226 8.0 9.7 0.00 0.00 0.00 63 1009.7
20260509155006 20 151 4.8 11.3 0.00 0.00 0.00 66 1009.8
20260509154503 19 95 0.0 9.7 0.00 0.00 0.00 64 1009.6
20260509154001 18 138 4.8 16.1 0.00 0.00 0.00 67 1010.0
20260509153457 18 348 1.6 20.9 0.00 0.00 0.00 68 1009.7
20260509152954 17 112 3.2 9.7 0.00 0.00 0.00 68 1010.0
20260509152450 17 243 4.8 11.3 0.00 0.00 0.00 68 1010.3
20260509151947 17 283 4.8 22.5 0.00 0.00 0.00 67 1010.2
20260509151443 17 150 14.5 16.1 0.00 0.00 0.00 68 1010.2
20260509150941 17 121 0.0 6.4 0.00 0.00 0.00 69 1010.3
20260509150438 16 261 0.0 14.5 0.00 0.00 0.00 69 1010.3
20260509145937 16 244 9.7 14.5 0.00 0.00 0.00 69 1010.5
20260509145437 16 131 14.5 14.5 0.00 0.00 0.00 68 1010.7
20260509144932 16 250 11.3 14.5 0.00 0.00 0.00 67 1010.7
20260509144430 16 148 3.2 8.0 0.00 0.00 0.00 68 1010.2
20260509143927 17 113 8.0 9.7 0.00 0.00 0.00 68 1010.0
20260509143424 16 273 4.8 12.9 0.00 0.00 0.00 70 1010.1
20260509142920 15 247 12.9 14.5 0.00 0.00 0.00 69 1010.2
20260509142417 15 220 0.0 11.3 0.00 0.00 0.00 70 1010.1
20260509141912 15 84 1.6 9.7 0.00 0.00 0.00 70 1010.3
20260509141410 15 132 6.4 19.3 0.00 0.00 0.00 70 1010.5
20260509140906 15 270 0.0 9.7 0.00 0.00 0.00 70 1010.6
20260509140403 15 90 4.8 17.7 0.00 0.00 0.00 71 1010.6
20260509135901 15 134 6.4 12.9 0.00 0.00 0.00 71 1010.7
20260509135358 14 143 11.3 14.5 0.00 0.00 0.00 72 1010.8
20260509134855 14 212 0.0 16.1 0.00 0.00 0.00 72 1010.6
20260509134353 14 228 3.2 11.3 0.00 0.00 0.00 72 1010.8
20260509133849 14 98 1.6 8.0 0.00 0.00 0.00 72 1010.8
20260509133346 14 85 3.2 8.0 0.00 0.00 0.00 72 1010.5
20260509132845 13 233 3.2 8.0 0.00 0.00 0.00 73 1010.8
20260509132343 13 98 4.8 4.8 0.00 0.00 0.00 73 1010.7
20260509131839 13 237 4.8 8.0 0.00 0.00 0.00 73 1011.0
20260509131336 13 135 4.8 11.3 0.00 0.00 0.00 73 1010.9
20260509130833 13 121 3.2 8.0 0.00 0.00 0.00 73 1010.9
20260509130328 13 132 3.2 6.4 0.00 0.00 0.00 72 1011.0
20260509125825 13 130 6.4 11.3 0.00 0.00 0.00 72 1011.0
20260509125322 13 116 8.0 9.7 0.00 0.00 0.00 72 1010.9
20260509124818 13 183 0.0 6.4 0.00 0.00 0.00 71 1011.0
20260509124315 13 141 4.8 6.4 0.00 0.00 0.00 72 1011.1
20260509123813 13 130 4.8 4.8 0.00 0.00 0.00 72 1010.9
20260509123310 12 180 3.2 14.5 0.00 0.00 0.00 71 1011.1
20260509122806 12 195 1.6 6.4 0.00 0.00 0.00 71 1011.1
20260509122306 12 134 8.0 11.3 0.00 0.00 0.00 71 1011.1
20260509121800 12 151 1.6 8.0 0.00 0.00 0.00 72 1011.2
20260509121257 12 141 4.8 6.4 0.00 0.00 0.00 71 1011.3
20260509120755 12 111 4.8 6.4 0.00 0.00 0.00 71 1010.9
20260509120253 12 192 0.0 9.7 0.00 0.00 0.00 71 1010.9
20260509115751 12 233 3.2 12.9 0.00 0.00 0.00 71 1011.0
20260509115247 12 139 3.2 11.3 0.00 0.00 0.00 72 1011.0
20260509114745 12 225 8.0 12.9 0.00 0.00 0.00 71 1011.0
20260509114244 12 255 0.0 6.4 0.00 0.00 0.00 73 1011.0
20260509113742 11 184 3.2 4.8 0.00 0.00 0.00 73 1011.0
20260509113239 11 144 8.0 9.7 0.00 0.00 0.00 73 1011.0
20260509112736 11 115 6.4 6.4 0.00 0.00 0.00 73 1011.1
20260509112233 11 180 0.0 4.8 0.00 0.00 0.00 74 1011.1
20260509111730 11 135 6.4 8.0 0.00 0.00 0.00 74 1011.1
20260509111226 11 127 0.0 4.8 0.00 0.00 0.00 74 1011.1
20260509110724 11 146 4.8 8.0 0.00 0.00 0.00 74 1011.0
20260509110220 11 140 4.8 9.7 0.00 0.00 0.00 74 1011.2
20260509105719 11 117 1.6 4.8 0.00 0.00 0.00 74 1011.1
20260509105216 10 117 4.8 4.8 0.00 0.00 0.00 74 1011.0
20260509104713 10 152 3.2 6.4 0.00 0.00 0.00 74 1011.1
20260509104210 10 157 0.0 6.4 0.00 0.00 0.00 74 1011.1
20260509103708 10 96 0.0 6.4 0.00 0.00 0.00 74 1010.9
20260509103205 10 113 4.8 9.7 0.00 0.00 0.00 74 1011.0
20260509102703 10 238 4.8 4.8 0.00 0.00 0.00 73 1011.0
20260509102200 10 105 3.2 4.8 0.00 0.00 0.00 73 1011.2
20260509101656 10 169 1.6 9.7 0.00 0.00 0.00 72 1010.9
20260509101153 10 82 0.0 8.0 0.00 0.00 0.00 72 1010.8
20260509100650 10 74 3.2 8.0 0.00 0.00 0.00 72 1010.8
20260509100147 10 116 6.4 8.0 0.00 0.00 0.00 72 1010.9
20260509095644 10 252 3.2 11.3 0.00 0.00 0.00 72 1010.9
20260509095141 10 248 0.0 6.4 0.00 0.00 0.00 73 1011.0
20260509094637 10 249 1.6 4.8 0.00 0.00 0.00 73 1010.9
20260509094134 10 235 3.2 4.8 0.00 0.00 0.00 74 1010.8
20260509093633 10 225 3.2 4.8 0.00 0.00 0.00 74 1010.8
20260509093130 10 209 1.6 4.8 0.00 0.00 0.00 73 1010.9
20260509092627 10 237 4.8 6.4 0.00 0.00 0.00 75 1010.8
20260509092126 10 246 4.8 8.0 0.00 0.00 0.00 77 1011.0
20260509091624 10 232 3.2 4.8 0.00 0.00 0.00 79 1010.9
20260509091119 10 206 3.2 4.8 0.00 0.00 0.00 80 1010.7
20260509090617 9 258 3.2 4.8 0.00 0.00 0.00 80 1011.2
20260509090115 9 234 0.0 4.8 0.00 0.00 0.00 80 1011.0
20260509085612 9 248 3.2 4.8 0.00 0.00 0.00 81 1011.1
20260509085108 9 220 0.0 3.2 0.00 0.00 0.00 81 1011.2
20260509084605 8 264 1.6 3.2 0.00 0.00 0.00 80 1011.0
20260509084102 9 255 1.6 4.8 0.00 0.00 0.00 80 1010.9
20260509083559 9 215 0.0 4.8 0.00 0.00 0.00 80 1011.2
20260509083055 8 172 0.0 3.2 0.00 0.00 0.00 79 1011.1
20260509082553 9 195 0.0 3.2 0.00 0.00 0.00 78 1011.3
20260509082050 9 114 1.6 3.2 0.00 0.00 0.00 78 1011.0